Regional Weather Roundup
Issued by NWS Little Rock, AR

Home | Current Version | Previous Version | Graphics & Text | Print | Product List | Glossary On
Versions: 1 2 3 4 5 6 7 8 9 10 11 12 13 14 15 16 17 18 19 20 21 22 23 24 25 26 27 28 29 30 31 32 33 34 35 36 37 38 39 40 41 42 43 44 45 46 47 48 49 50
000
ASUS44 KLZK 021105
RWRLZK

WEATHER ROUNDUP FOR ARKANSAS
NATIONAL WEATHER SERVICE LITTLE ROCK AR
600 AM CDT SUN AUG 02 2015

NOTE: "FAIR" INDICATES FEW OR NO CLOUDS BELOW 12,000 FEET WITH NO
SIGNIFICANT WEATHER AND/OR OBSTRUCTIONS TO VISIBILITY.

ARZ001-003-010-029-021200-
NORTHWEST ARKANSAS

CITY           SKY/WX    TMP DP  RH WIND       PRES   REMARKS
FAYETTEVILLE   CLEAR     65  65 100 S3        30.00F
FORT SMITH     CLEAR     73  68  84 E5        29.96S
HARRISON       PTCLDY    71  62  73 SW3       30.00F
BENTONVILLE    CLEAR     70  64  83 CALM      30.00F
ROGERS         CLEAR     70  69  97 E3        30.01F
SILOAM SPGS    CLEAR     68  61  77 E5        29.98S
HIGHFILL       CLEAR     67  66  97 CALM      30.00S
SPRINGDALE     CLEAR     68  68 100 CALM      30.02
$$

ARZ004-005-016-021200-
NORTH CENTRAL ARKANSAS

CITY           SKY/WX    TMP DP  RH WIND       PRES   REMARKS
BATESVILLE     CLEAR     66  64  94 NW3       29.96F
FLIPPIN        PTCLDY    66  63  88 CALM      29.96F
MTN HOME       PTCLDY    69  67  93 CALM      29.98S
$$

ARZ040-041-021200-
WEST CENTRAL ARKANSAS

CITY           SKY/WX    TMP DP  RH WIND       PRES   REMARKS
MENA           CLEAR     64  61  88 CALM      30.00S
MOUNT IDA      PTCLDY    65  63  93 CALM      29.96F
$$

ARZ009-017-025-026-028-021200-
NORTHEAST ARKANSAS

CITY           SKY/WX    TMP DP  RH WIND       PRES   REMARKS
JONESBORO      CLEAR     69  68  96 CALM      29.96S
NEWPORT        CLEAR     72  71  96 CALM      29.97S
WALNUT RIDGE   PTCLDY    73  68  83 CALM      29.96S
BLYTHEVILLE    CLEAR     73  71  93 CALM      29.96S
$$

ARZ022-023-033-042-044-021200-
CENTRAL ARKANSAS

CITY           SKY/WX    TMP DP  RH WIND       PRES   REMARKS
LITTLE ROCK    MOCLDY    72  68  87 CALM      29.96S
N LITTLE ROCK    N/A     73  65  77 CALM      29.96S
JACKSONVILLE   CLEAR     68  64  89 W2        29.95S
SEARCY         PTCLDY    67  66  97 CALM      29.97S
HOT SPRINGS    PTCLDY    69  64  84 CALM      29.97S
RUSSELLVILLE   PTCLDY    67  66  97 CALM      29.96S
$$

ARZ036-021200-
EAST ARKANSAS

CITY           SKY/WX    TMP DP  RH WIND       PRES   REMARKS
WEST MEMPHIS   CLEAR     70  70 100 NW3       29.95R
$$

ARZ050-053-066-070-073-021200-
SOUTHWEST ARKANSAS

CITY           SKY/WX    TMP DP  RH WIND       PRES   REMARKS
ARKADELPHIA    FAIR      67  67 100 CALM      29.97R
CAMDEN         FOG       64  61  88 CALM      29.95S VSB 1/2
TEXARKANA      CLEAR     67  65  93 NE3       29.96R
EL DORADO      CLEAR     65  62  90 CALM      29.96R
DE QUEEN       CLEAR     65  64  97 CALM      29.95R FOG
$$

ARZ056-057-069-021200-
SOUTHEAST ARKANSAS

CITY           SKY/WX    TMP DP  RH WIND       PRES   REMARKS
PINE BLUFF     CLEAR     68  65  90 CALM      29.96R
STUTTGART      CLEAR     70  64  83 CALM      29.95S
MONTICELLO     CLEAR     67  66  97 MISG      29.95S

$$




USA.gov is the U.S. government's official web portal to all federal, state and local government web resources and services.